SB KEPS @ AMSAT $ORB24320.1
2Line Orbital Elements 24320.AMSAT
QST de W1STR
AMSAT Orbital Elements for Amateur Satellites in TLE Format
From Orbital Analysis Office
New England Sci-Tech STEM Education Center
Natick, MA November 15, 2024
To all radio amateurs
These element sets describe the orbits of various satellites
in use by the amateur radio community. For details see:
www.amsat.org/keplerian-elements-formats/
A daily update of element sets is available at:
www.amsat.org/tle/daily-bulletin.txt
or without bulletin text:
www.amsat.org/tle/dailytle.txt
AO-07
1 07530U 74089B 24319.58167947 -.00000025 00000-0 13340-3 0 9991
2 07530 101.9894 315.6958 0012219 156.1148 323.7686 12.53682511287889
UO-11
1 14781U 84021B 24319.39018770 .00003981 00000-0 43916-3 0 9997
2 14781 97.7260 284.4309 0006520 311.0356 49.0296 14.88022856170817
AO-27
1 22825U 93061C 24319.14356552 .00000428 00000-0 18096-3 0 9999
2 22825 98.7693 13.3475 0008452 8.1514 351.9804 14.30655266624059
FO-29
1 24278U 96046B 24319.36167610 .00000044 00000-0 78800-4 0 9992
2 24278 98.5853 234.3471 0350396 159.1421 202.4428 13.53221555394747
NOAA-15
1 25338U 98030A 24319.60020358 .00000498 00000-0 22314-3 0 9990
2 25338 98.5565 343.5196 0009280 242.1801 117.8439 14.26795906378885
GO-32
1 25397U 98043D 24319.52065577 .00000339 00000-0 16714-3 0 9993
2 25397 98.9441 288.6511 0002382 85.8744 274.2707 14.24189521368817
ISS
1 25544U 98067A 24319.76599714 .00008415 00000-0 15631-3 0 9994
2 25544 51.6420 289.3704 0007822 217.7694 206.3129 15.49789762481901
NO-44
1 26931U 01043C 24319.43734112 .00000731 00000-0 30602-3 0 9998
2 26931 67.0504 303.3201 0007303 262.4579 97.5693 14.31497115207458
SO-50
1 27607U 02058C 24319.59121765 .00003229 00000-0 43763-3 0 9994
2 27607 64.5529 118.8392 0031391 34.4300 325.8829 14.80294180178570
CO-55
1 27844U 03031E 24319.58688600 .00001036 00000-0 47346-3 0 9999
2 27844 98.6786 324.5720 0010810 70.6301 289.6045 14.23639837109180
CO-57
1 27848U 03031J 24319.44194190 .00000904 00000-0 42048-3 0 9991
2 27848 98.6818 324.5829 0010749 85.8832 274.3575 14.23027268108905
RS-22
1 27939U 03042A 24319.59825748 .00003118 00000-0 51426-3 0 9990
2 27939 98.3066 118.4717 0010884 308.7015 140.0364 14.71174173130387
NOAA-18
1 28654U 05018A 24319.57707871 .00000532 00000-0 30644-3 0 9990
2 28654 98.8635 35.2213 0014044 1.0890 359.0310 14.13420519 4503
CO-58
1 28895U 05043F 24319.42516162 .00004044 00000-0 69202-3 0 9994
2 28895 98.2219 95.8108 0014357 241.2967 118.6796 14.69338996 16505
CO-65
1 32785U 08021C 24319.15359927 .00009426 00000-0 75573-3 0 9997
2 32785 97.7719 283.7155 0010681 185.9044 174.2055 15.00287119898008
AAUSAT2
1 32788U 08021F 24319.51957055 .00054216 00000-0 17004-2 0 9997
2 32788 97.6035 301.6622 0006454 52.6289 307.5540 15.32845307901216
CO-66
1 32791U 08021J 24319.38579730 .00016787 00000-0 10334-2 0 9996
2 32791 97.7077 290.4312 0006504 130.9672 229.2120 15.10059295899219
RS-30
1 32953U 08025A 24319.56982779 .00000061 00000-0 36674-3 0 9995
2 32953 82.5053 355.9516 0020483 135.2113 225.0625 12.43153136747812
PRISM
1 33493U 09002B 24319.11480076 .00056269 00000-0 16058-2 0 9999
2 33493 98.1828 21.0160 0008292 88.8917 271.3274 15.35811484861902
NOAA-19
1 33591U 09005A 24319.62118383 .00000458 00000-0 26865-3 0 9993
2 33591 99.0287 16.8843 0013170 225.2497 134.7604 14.13199573812875
SRMSAT
1 37841U 11058D 24319.38879019 .00000754 00000-0 26674-3 0 9996
2 37841 19.9734 328.2160 0011556 306.6491 188.5936 14.11283777675804
RS-40
1 38735U 12041C 24319.49861518 -.00000001 00000-0 -77787-4 0 9998
2 38735 82.4758 76.1556 0016767 249.5505 110.3774 12.42620351557847
ZACUBE-1
1 39417U 13066B 24319.41243849 .00010223 00000-0 97424-3 0 9991
2 39417 97.7530 272.4615 0048702 25.2241 335.1342 14.92652568593962
Delfi-N3xt
1 39428U 13066N 24319.21552477 .00014645 00000-0 16791-2 0 9990
2 39428 97.8353 233.9583 0092368 322.3406 37.1364 14.82921423588285
GOMX-1
1 39430U 13066Q 24319.59405264 .00004117 00000-0 66252-3 0 9996
2 39430 97.7068 184.8365 0137153 133.4509 227.8203 14.65899377585065
LO-74
1 39440U 13066AA 24319.40631880 .00006744 00000-0 73906-3 0 9994
2 39440 97.8276 260.2029 0067412 140.5857 220.0291 14.86404412590624
AO-73
1 39444U 13066AE 24319.37374379 .00014512 00000-0 12505-2 0 9990
2 39444 97.7386 276.0310 0044692 4.5411 355.6207 14.96645160592539
DTUSAT-2
1 40030U 14033W 24319.41945870 .00012116 00000-0 90728-3 0 9995
2 40030 98.0313 276.4126 0012405 48.7876 311.4415 15.02816516565227
EO-80
1 40032U 14033Y 24319.45048299 .00012335 00000-0 92301-3 0 9992
2 40032 98.0163 276.3757 0009341 352.5057 7.6025 15.02865176565208
XW-2C
1 40906U 15049H 24319.56240625 .00098116 00000-0 10553-2 0 9998
2 40906 97.4611 341.9946 0007445 107.7439 252.4632 15.63388166507773
XW-2D
1 40907U 15049J 24319.57577104 .03556063 25027-5 12550-2 0 9998
2 40907 97.4291 348.1082 0003311 228.1543 131.9466 16.25159939508242
LILACSAT-2
1 40908U 15049K 24319.55731974 .00015259 00000-0 50083-3 0 9991
2 40908 97.5205 329.8472 0011210 168.7577 191.3917 15.31629635506465
XW-2B
1 40911U 15049N 24319.56574830 .00933487 45551-3 14463-2 0 9998
2 40911 97.4427 347.6101 0002497 151.9944 208.1471 16.04281436508075
IO-86
1 40931U 15052B 24319.48411443 .00002079 00000-0 19166-3 0 9992
2 40931 6.0011 358.4542 0012341 51.4331 308.6901 14.78346323493730
ChubuSat-2
1 41338U 16012B 24318.89917581 .00010186 00000-0 57760-3 0 9999
2 41338 30.9980 145.1131 0010606 305.2080 54.7565 15.11662342480248
ChubuSat-3
1 41339U 16012C 24319.57610506 .00008186 00000-0 47559-3 0 9995
2 41339 31.0047 140.3850 0010776 314.1334 45.8418 15.10715378480312
Horyu-4
1 41340U 16012D 24319.55482497 .00025521 00000-0 10123-2 0 9999
2 41340 31.0008 70.7841 0009842 73.0211 287.1509 15.24149850481048
Lapan A3
1 41603U 16040E 24319.58526117 .00005814 00000-0 21957-3 0 9994
2 41603 97.1396 326.6725 0009679 291.3797 68.6409 15.27331374466163
Pratham
1 41783U 16059A 24319.57449196 .00002049 00000-0 38280-3 0 9997
2 41783 97.8308 331.8799 0030586 263.0723 96.7002 14.65649429434561
CAS-2T
1 41847U 16066G 24319.28396885 .00002479 00000-0 36231-3 0 9991
2 41847 98.4464 29.4516 0351163 85.0008 279.1164 14.42396952421123
CAS-4B
1 42759U 17034B 24319.60199554 .00038694 00000-0 98287-3 0 9997
2 42759 43.0133 90.8654 0014905 293.0138 66.9146 15.38874565410481
CAS-4A
1 42761U 17034D 24319.58796015 .00045756 00000-0 11492-2 0 9991
2 42761 43.0170 89.1426 0015401 301.7699 58.1656 15.39146649410490
D-SAT
1 42794U 17036AF 24319.51161289 .00014047 00000-0 88439-3 0 9996
2 42794 97.4923 296.3097 0102634 358.1177 1.9649 15.04939947403294
TechnoSat
1 42829U 17042E 24319.44822155 .00006510 00000-0 54104-3 0 9998
2 42829 97.3893 132.3837 0010203 292.9600 67.0547 14.99003970399661
AO-91
1 43017U 17073E 24319.59275161 .00014240 00000-0 79594-3 0 9996
2 43017 97.5488 190.0230 0196503 148.3224 213.0004 14.98568612378144
S-Net D
1 43186U 18014G 24319.61631453 .00009928 00000-0 65015-3 0 9992
2 43186 97.5762 218.9731 0008700 205.3221 154.7582 15.07900209371142
S-Net B
1 43187U 18014H 24319.61950095 .00009699 00000-0 63541-3 0 9996
2 43187 97.5764 218.9365 0009540 200.7012 159.3831 15.07886773371145
S-Net A
1 43188U 18014J 24319.61727915 .00009955 00000-0 65180-3 0 9996
2 43188 97.5774 219.0602 0009383 201.4691 158.6145 15.07903363371144
S-Net C
1 43189U 18014K 24319.28971276 .00008861 00000-0 58083-3 0 9990
2 43189 97.5784 218.7146 0011290 195.9847 164.1027 15.07879342369647
Ten-Koh
1 43677U 18084G 24319.40479691 .00006368 00000-0 54052-3 0 9999
2 43677 98.0803 117.7452 0011823 235.6772 124.3331 14.98230704329190
PO-101
1 43678U 18084H 24319.58137695 .00003467 00000-0 30959-3 0 9991
2 43678 98.0852 122.2766 0008020 252.4577 107.5768 14.96611843329405
QO-100
1 43700U 18090A 24319.01103424 .00000154 00000-0 00000-0 0 9996
2 43700 0.0146 281.5084 0001958 347.8688 174.0238 1.00271822 21856
MinXSS-2
1 43758U 18099A 24319.14792380 .00019033 00000-0 99595-3 0 9993
2 43758 97.5351 19.6578 0014815 158.1182 202.0686 15.15788998325443
AO-95
1 43770U 18099N 24319.14608315 .00013031 00000-0 78676-3 0 9990
2 43770 97.5265 14.0767 0011699 203.9680 156.1006 15.10781032325160
RANGE-B
1 43772U 18099Q 24318.90742329 .00027594 00000-0 13601-2 0 9994
2 43772 97.5057 18.1023 0005174 106.9882 253.1919 15.17895720325368
RANGE-A
1 43773U 18099R 24319.56294223 .00009327 00000-0 65136-3 0 9998
2 43773 97.4820 8.0780 0012261 176.4690 183.6625 15.05495847325036
MOVE-II
1 43780U 18099Y 24319.12137084 .00046396 00000-0 15970-2 0 9996
2 43780 97.5012 21.7797 0004872 167.8378 192.2981 15.29893490325723
SNUSat 2
1 43782U 18099AA 24319.14076678 .00011096 00000-0 70031-3 0 9990
2 43782 97.4950 12.3501 0014284 144.5039 215.7143 15.09171805325153
SnugLite
1 43784U 18099AC 24319.15043959 .00013410 00000-0 80467-3 0 9995
2 43784 97.4767 11.6630 0004708 140.6471 219.5102 15.11044603325248
ITASat 1
1 43786U 18099AE 24319.56135031 .00011253 00000-0 72900-3 0 9991
2 43786 97.4915 12.7736 0015498 194.7846 165.2931 15.08193897325207
EAGLET 1
1 43790U 18099AJ 24319.12806049 .00006672 00000-0 46416-3 0 9994
2 43790 97.5098 12.7814 0013081 173.8005 186.3386 15.05739689324819
ESEO
1 43792U 18099AL 24319.60354979 .00004034 00000-0 31927-3 0 9990
2 43792 97.4893 8.9875 0008926 131.8266 228.3722 15.01117735324754
CSIM
1 43793U 18099AM 24319.15290312 .00045971 00000-0 16091-2 0 9990
2 43793 97.5147 23.6358 0009394 147.3220 212.8603 15.29318873325573
JO-97
1 43803U 18099AX 24319.61712599 .00016731 00000-0 94621-3 0 9997
2 43803 97.5011 15.2954 0009490 139.4001 220.7940 15.13105649325390
Suomi 100
1 43804U 18099AY 24319.57030831 .00015495 00000-0 90956-3 0 9998
2 43804 97.5081 14.9593 0014794 142.1209 218.1065 15.11725776325359
ISAT
1 43879U 18111D 24319.21744934 .00022057 00000-0 10829-2 0 9994
2 43879 97.6063 224.7484 0010263 188.7295 171.3761 15.18048388322118
UWE-4
1 43880U 18111E 24319.26733518 .00018471 00000-0 95687-3 0 9998
2 43880 97.5996 224.3691 0013109 203.3998 156.6639 15.16173255322116
